| time (UTC) | temp F | wind direction | speed MPH | gust MPH | rain 1hr in | rain 24hr in | rain mn in | humidity % | barometer mb |
| 20260506123725 | 49 | 145 | 1.0 | 3.0 | 0.02 | 0.01 | 0.01 | 99 | 1018.1 |
| 20260506123224 | 49 | 121 | 0.0 | 3.0 | 0.00 | 0.00 | 0.00 | 99 | 1017.9 |
| 20260506122720 | 49 | 164 | 2.0 | 3.0 | 0.00 | 0.00 | 0.00 | 99 | 1017.8 |
| 20260506122218 | 49 | 97 | 0.0 | 2.0 | 0.00 | 0.00 | 0.00 | 99 | 1017.9 |
| 20260506121715 | 49 | 159 | 0.0 | 4.0 | 0.00 | 0.00 | 0.00 | 99 | 1017.7 |
| 20260506121212 | 49 | 114 | 2.0 | 3.0 | 0.02 | 0.00 | 0.00 | 99 | 1018.0 |
| 20260506120710 | 49 | 57 | 2.0 | 2.0 | 0.02 | 0.00 | 0.00 | 99 | 1017.8 |
| 20260506120207 | 49 | 106 | 1.0 | 3.0 | 0.00 | 0.00 | 0.00 | 99 | 1017.8 |
| 20260506115705 | 49 | 107 | 1.0 | 3.0 | 0.00 | 0.00 | 0.00 | 99 | 1017.6 |
| 20260506115203 | 49 | 122 | 2.0 | 3.0 | 0.00 | 0.00 | 0.00 | 99 | 1017.5 |
| 20260506114700 | 49 | 106 | 1.0 | 2.0 | 0.00 | 0.00 | 0.00 | 99 | 1017.7 |
| 20260506114158 | 49 | 85 | 1.0 | 2.0 | 0.00 | 0.00 | 0.00 | 99 | 1017.6 |
| 20260506113656 | 49 | 110 | 2.0 | 2.0 | 0.00 | 0.00 | 0.00 | 99 | 1017.6 |
| 20260506113153 | 49 | 115 | 2.0 | 4.0 | 0.00 | 0.00 | 0.00 | 99 | 1017.6 |
| 20260506112649 | 49 | 63 | 2.0 | 2.0 | 0.00 | 0.00 | 0.00 | 99 | 1017.5 |
| 20260506112147 | 49 | 121 | 2.0 | 3.0 | 0.00 | 0.00 | 0.00 | 99 | 1017.5 |
| 20260506111644 | 49 | 106 | 2.0 | 2.0 | 0.00 | 0.00 | 0.00 | 99 | 1017.4 |
| 20260506111142 | 49 | 105 | 2.0 | 3.0 | 0.00 | 0.00 | 0.00 | 99 | 1017.5 |
| 20260506110639 | 49 | 97 | 2.0 | 3.0 | 0.00 | 0.00 | 0.00 | 99 | 1017.4 |
| 20260506110136 | 49 | 116 | 2.0 | 3.0 | 0.00 | 0.00 | 0.00 | 99 | 1017.3 |
| 20260506105633 | 49 | 114 | 0.0 | 4.0 | 0.00 | 0.00 | 0.00 | 99 | 1017.4 |
| 20260506105130 | 49 | 139 | 2.0 | 4.0 | 0.00 | 0.00 | 0.00 | 99 | 1017.0 |
| 20260506104628 | 49 | 94 | 1.0 | 4.0 | 0.00 | 0.00 | 0.00 | 99 | 1017.0 |
| 20260506104125 | 49 | 121 | 2.0 | 4.0 | 0.00 | 0.00 | 0.00 | 99 | 1016.9 |
| 20260506103623 | 49 | 94 | 1.0 | 2.0 | 0.00 | 0.00 | 0.00 | 99 | 1016.8 |
| 20260506103119 | 49 | 113 | 2.0 | 2.0 | 0.00 | 0.00 | 0.00 | 99 | 1017.0 |
| 20260506102618 | 49 | 101 | 1.0 | 2.0 | 0.00 | 0.00 | 0.00 | 99 | 1016.9 |
| 20260506102115 | 49 | 129 | 2.0 | 2.0 | 0.00 | 0.00 | 0.00 | 99 | 1017.0 |
| 20260506101611 | 49 | 134 | 2.0 | 3.0 | 0.00 | 0.00 | 0.00 | 99 | 1016.9 |
| 20260506101108 | 49 | 114 | 2.0 | 2.0 | 0.00 | 0.00 | 0.00 | 99 | 1016.8 |
| 20260506100607 | 49 | 119 | 2.0 | 2.0 | 0.00 | 0.00 | 0.00 | 99 | 1017.0 |
| 20260506100104 | 49 | 107 | 2.0 | 2.0 | 0.00 | 0.00 | 0.00 | 99 | 1016.8 |
| 20260506095603 | 49 | 119 | 2.0 | 2.0 | 0.00 | 0.00 | 0.00 | 99 | 1016.8 |
| 20260506095059 | 49 | 123 | 2.0 | 3.0 | 0.00 | 0.00 | 0.00 | 99 | 1016.7 |
| 20260506094556 | 49 | 135 | 2.0 | 3.0 | 0.00 | 0.00 | 0.00 | 99 | 1016.9 |
| 20260506094054 | 49 | 131 | 0.0 | 2.0 | 0.00 | 0.00 | 0.00 | 99 | 1016.9 |
| 20260506093552 | 49 | 106 | 1.0 | 1.0 | 0.00 | 0.00 | 0.00 | 99 | 1017.0 |
| 20260506093049 | 49 | 107 | 1.0 | 2.0 | 0.00 | 0.00 | 0.00 | 99 | 1016.8 |
| 20260506092547 | 49 | 60 | 1.0 | 2.0 | 0.00 | 0.00 | 0.00 | 99 | 1016.7 |
| 20260506092044 | 49 | 85 | 0.0 | 2.0 | 0.00 | 0.00 | 0.00 | 99 | 1017.0 |
| 20260506091542 | 49 | 68 | 1.0 | 2.0 | 0.00 | 0.00 | 0.00 | 99 | 1016.8 |
| 20260506091039 | 49 | 133 | 2.0 | 2.0 | 0.00 | 0.00 | 0.00 | 99 | 1016.7 |
| 20260506090537 | 49 | 128 | 2.0 | 2.0 | 0.00 | 0.00 | 0.00 | 99 | 1016.6 |
| 20260506090033 | 49 | 99 | 2.0 | 2.0 | 0.00 | 0.00 | 0.00 | 99 | 1016.8 |
| 20260506085530 | 49 | 116 | 2.0 | 2.0 | 0.00 | 0.00 | 0.00 | 99 | 1016.8 |
| 20260506085026 | 49 | 104 | 2.0 | 2.0 | 0.00 | 0.00 | 0.00 | 99 | 1016.8 |
| 20260506084523 | 50 | 149 | 3.0 | 4.0 | 0.00 | 0.00 | 0.00 | 99 | 1016.8 |
| 20260506084019 | 50 | 103 | 1.0 | 1.0 | 0.00 | 0.00 | 0.00 | 99 | 1016.8 |
| 20260506083517 | 50 | 75 | 1.0 | 1.0 | 0.00 | 0.00 | 0.00 | 99 | 1016.7 |
| 20260506083014 | 50 | 84 | 1.0 | 2.0 | 0.00 | 0.00 | 0.00 | 99 | 1016.6 |
| 20260506082511 | 50 | 68 | 2.0 | 2.0 | 0.00 | 0.00 | 0.00 | 99 | 1016.7 |
| 20260506082006 | 50 | 66 | 1.0 | 3.0 | 0.00 | 0.00 | 0.00 | 99 | 1016.5 |
| 20260506081505 | 50 | 89 | 0.0 | 1.0 | 0.00 | 0.00 | 0.00 | 99 | 1016.6 |
| 20260506081002 | 50 | 94 | 1.0 | 1.0 | 0.00 | 0.00 | 0.00 | 99 | 1016.5 |
| 20260506080459 | 50 | 34 | 1.0 | 1.0 | 0.00 | 0.00 | 0.00 | 99 | 1016.3 |
| 20260506073443 | 49 | 42 | 2.0 | 2.0 | 0.00 | 0.00 | 0.00 | 99 | 1016.2 |
| 20260506072940 | 50 | 73 | 1.0 | 2.0 | 0.00 | 0.00 | 0.00 | 99 | 1016.1 |
| 20260506072437 | 50 | 46 | 2.0 | 2.0 | 0.00 | 0.00 | 0.00 | 99 | 1016.1 |
| 20260506071935 | 50 | 65 | 1.0 | 2.0 | 0.00 | 0.00 | 0.00 | 99 | 1016.1 |
| 20260506071433 | 50 | 46 | 2.0 | 2.0 | 0.00 | 0.00 | 0.00 | 99 | 1016.1 |
| 20260506070929 | 50 | 62 | 2.0 | 2.0 | 0.00 | 0.00 | 0.00 | 99 | 1016.1 |
| 20260506070426 | 49 | 52 | 2.0 | 2.0 | 0.00 | 0.00 | 0.00 | 99 | 1016.0 |
| 20260506062404 | 48 | 147 | 2.0 | 2.0 | 0.00 | 0.00 | 0.00 | 99 | 1016.0 |
| 20260506061859 | 48 | 104 | 2.0 | 2.0 | 0.00 | 0.00 | 0.00 | 99 | 1015.9 |
| 20260506061356 | 48 | 89 | 0.0 | 1.0 | 0.00 | 0.00 | 0.00 | 99 | 1015.8 |
| 20260506060854 | 48 | 117 | 0.0 | 1.0 | 0.00 | 0.00 | 0.00 | 99 | 1015.9 |
| 20260506060352 | 48 | 118 | 2.0 | 2.0 | 0.00 | 0.00 | 0.00 | 99 | 1015.8 |
| 20260506051324 | 50 | 116 | 1.0 | 2.0 | 0.00 | 0.00 | 0.00 | 97 | 1015.8 |
| 20260506050822 | 50 | 124 | 1.0 | 2.0 | 0.00 | 0.00 | 0.00 | 96 | 1015.7 |
| 20260506050319 | 51 | 84 | 0.0 | 2.0 | 0.00 | 0.00 | 0.00 | 96 | 1015.7 |
| 20260506044809 | 51 | 119 | 0.0 | 2.0 | 0.00 | 0.00 | 0.00 | 95 | 1015.4 |
| 20260506044307 | 52 | 93 | 2.0 | 2.0 | 0.00 | 0.00 | 0.00 | 96 | 1015.5 |
| 20260506043804 | 52 | 79 | 1.0 | 2.0 | 0.00 | 0.00 | 0.00 | 95 | 1015.4 |
| 20260506043301 | 52 | 31 | 2.0 | 2.0 | 0.00 | 0.00 | 0.00 | 95 | 1015.3 |
| 20260506042801 | 52 | 55 | 2.0 | 2.0 | 0.00 | 0.00 | 0.00 | 94 | 1015.3 |
| 20260506042258 | 52 | 48 | 2.0 | 2.0 | 0.00 | 0.00 | 0.00 | 94 | 1015.2 |
| 20260506041757 | 53 | 53 | 2.0 | 2.0 | 0.00 | 0.00 | 0.00 | 94 | 1015.2 |
| 20260506041253 | 53 | 49 | 2.0 | 2.0 | 0.00 | 0.00 | 0.00 | 94 | 1015.2 |
| 20260506040750 | 52 | 58 | 1.0 | 2.0 | 0.00 | 0.00 | 0.00 | 94 | 1014.9 |
| 20260506040247 | 52 | 56 | 2.0 | 2.0 | 0.00 | 0.00 | 0.00 | 94 | 1015.0 |
| 20260506035745 | 52 | 44 | 2.0 | 2.0 | 0.00 | 0.00 | 0.00 | 94 | 1015.0 |
| 20260506035241 | 52 | 53 | 2.0 | 2.0 | 0.00 | 0.00 | 0.00 | 94 | 1015.0 |
| 20260506034738 | 52 | 49 | 2.0 | 2.0 | 0.00 | 0.00 | 0.00 | 93 | 1014.8 |
| 20260506034235 | 52 | 63 | 2.0 | 2.0 | 0.00 | 0.00 | 0.00 | 94 | 1014.8 |
| 20260506033732 | 52 | 44 | 2.0 | 2.0 | 0.00 | 0.00 | 0.00 | 94 | 1014.8 |
| 20260506033230 | 52 | 44 | 1.0 | 2.0 | 0.00 | 0.00 | 0.00 | 92 | 1014.9 |
| 20260506032726 | 52 | 46 | 2.0 | 2.0 | 0.00 | 0.00 | 0.00 | 91 | 1014.9 |
| 20260506032223 | 52 | 101 | 2.0 | 2.0 | 0.00 | 0.00 | 0.00 | 91 | 1014.8 |
| 20260506031720 | 53 | 102 | 2.0 | 2.0 | 0.00 | 0.00 | 0.00 | 90 | 1014.9 |
| 20260506031217 | 53 | 84 | 1.0 | 2.0 | 0.00 | 0.00 | 0.00 | 90 | 1014.9 |
| 20260506030715 | 53 | 87 | 1.0 | 2.0 | 0.00 | 0.00 | 0.00 | 89 | 1014.9 |
| 20260506030212 | 54 | 89 | 0.0 | 2.0 | 0.00 | 0.00 | 0.00 | 89 | 1014.8 |
| 20260506025709 | 54 | 107 | 2.0 | 2.0 | 0.00 | 0.00 | 0.00 | 88 | 1014.9 |
| 20260506025206 | 54 | 114 | 2.0 | 2.0 | 0.00 | 0.00 | 0.00 | 88 | 1014.7 |
| 20260506024703 | 55 | 107 | 1.0 | 2.0 | 0.00 | 0.00 | 0.00 | 88 | 1014.9 |
| 20260506024159 | 55 | 107 | 2.0 | 2.0 | 0.00 | 0.00 | 0.00 | 88 | 1014.9 |
| 20260506023655 | 55 | 110 | 2.0 | 2.0 | 0.00 | 0.00 | 0.00 | 87 | 1014.8 |
| 20260506023153 | 56 | 73 | 1.0 | 2.0 | 0.00 | 0.00 | 0.00 | 87 | 1014.7 |
| 20260506022650 | 56 | 88 | 1.0 | 2.0 | 0.00 | 0.00 | 0.00 | 85 | 1014.7 |
| 20260506022147 | 56 | 100 | 2.0 | 2.0 | 0.00 | 0.00 | 0.00 | 85 | 1014.8 |
| 20260506021645 | 57 | 111 | 2.0 | 2.0 | 0.00 | 0.00 | 0.00 | 84 | 1014.7 |
| 20260506021142 | 56 | 111 | 1.0 | 2.0 | 0.00 | 0.00 | 0.00 | 85 | 1014.8 |
| 20260506020639 | 56 | 138 | 1.0 | 2.0 | 0.00 | 0.00 | 0.00 | 85 | 1014.9 |
| 20260506020137 | 56 | 110 | 3.0 | 3.0 | 0.00 | 0.00 | 0.00 | 85 | 1014.9 |
| 20260506015634 | 57 | 117 | 2.0 | 3.0 | 0.00 | 0.00 | 0.00 | 84 | 1014.9 |
| 20260506015131 | 57 | 111 | 2.0 | 3.0 | 0.00 | 0.00 | 0.00 | 83 | 1014.9 |
| 20260506014629 | 57 | 121 | 2.0 | 3.0 | 0.00 | 0.00 | 0.00 | 82 | 1014.9 |
| 20260506014124 | 58 | 102 | 2.0 | 3.0 | 0.00 | 0.00 | 0.00 | 82 | 1014.9 |
| 20260506013623 | 58 | 92 | 2.0 | 2.0 | 0.00 | 0.00 | 0.00 | 81 | 1014.9 |
| 20260506013119 | 58 | 125 | 2.0 | 5.0 | 0.00 | 0.00 | 0.00 | 81 | 1014.9 |
| 20260506012615 | 59 | 95 | 0.0 | 2.0 | 0.00 | 0.00 | 0.00 | 80 | 1015.1 |
| 20260506012111 | 59 | 110 | 2.0 | 4.0 | 0.00 | 0.00 | 0.00 | 80 | 1014.8 |
| 20260506011609 | 59 | 123 | 2.0 | 4.0 | 0.00 | 0.00 | 0.00 | 80 | 1014.9 |
| 20260506011105 | 60 | 123 | 3.0 | 4.0 | 0.00 | 0.00 | 0.00 | 79 | 1014.9 |
| 20260506010559 | 60 | 50 | 1.0 | 4.0 | 0.00 | 0.00 | 0.00 | 77 | 1014.9 |
| 20260506010055 | 61 | 123 | 2.0 | 3.0 | 0.00 | 0.00 | 0.00 | 76 | 1015.0 |
| 20260506005553 | 62 | 116 | 2.0 | 3.0 | 0.00 | 0.00 | 0.00 | 75 | 1015.1 |
| 20260506005048 | 63 | 114 | 2.0 | 3.0 | 0.00 | 0.00 | 0.00 | 72 | 1014.9 |
| 20260506004546 | 63 | 184 | 0.0 | 2.0 | 0.00 | 0.00 | 0.00 | 73 | 1014.8 |
| 20260506004043 | 63 | 156 | 2.0 | 3.0 | 0.00 | 0.00 | 0.00 | 74 | 1014.9 |
| 20260506003539 | 64 | 247 | 0.0 | 3.0 | 0.00 | 0.00 | 0.00 | 70 | 1015.0 |
| 20260506003035 | 64 | 84 | 2.0 | 3.0 | 0.00 | 0.00 | 0.00 | 73 | 1014.8 |
| 20260506002531 | 63 | 116 | 3.0 | 3.0 | 0.00 | 0.00 | 0.00 | 73 | 1015.1 |
| 20260506002027 | 63 | 120 | 3.0 | 3.0 | 0.00 | 0.00 | 0.00 | 73 | 1014.9 |
| 20260506001524 | 63 | 39 | 2.0 | 4.0 | 0.00 | 0.00 | 0.00 | 72 | 1015.1 |
| 20260506001021 | 64 | 103 | 0.0 | 3.0 | 0.00 | 0.00 | 0.00 | 71 | 1015.1 |
| 20260506000519 | 64 | 129 | 2.0 | 3.0 | 0.00 | 0.00 | 0.00 | 72 | 1015.0 |
| 20260506000016 | 64 | 126 | 1.0 | 3.0 | 0.00 | 0.00 | 0.00 | 73 | 1015.2 |
| 20260505235514 | 65 | 141 | 0.0 | 3.0 | 0.00 | 0.00 | 0.00 | 71 | 1015.1 |
| 20260505235010 | 65 | 124 | 2.0 | 3.0 | 0.00 | 0.00 | 0.00 | 70 | 1015.1 |
| 20260505234507 | 66 | 92 | 1.0 | 2.0 | 0.00 | 0.00 | 0.00 | 69 | 1015.2 |
| 20260505234004 | 66 | 149 | 0.0 | 2.0 | 0.00 | 0.00 | 0.00 | 69 | 1015.2 |
| 20260505233502 | 65 | 234 | 0.0 | 3.0 | 0.00 | 0.00 | 0.00 | 70 | 1015.1 |
| 20260505232959 | 64 | 118 | 2.0 | 4.0 | 0.00 | 0.00 | 0.00 | 72 | 1015.2 |
| 20260505232457 | 64 | 302 | 3.0 | 3.0 | 0.00 | 0.00 | 0.00 | 71 | 1015.4 |
| 20260505231954 | 64 | 107 | 2.0 | 4.0 | 0.00 | 0.00 | 0.00 | 73 | 1015.2 |
| 20260505231451 | 64 | 166 | 3.0 | 4.0 | 0.00 | 0.00 | 0.00 | 71 | 1015.2 |
| 20260505230949 | 64 | 91 | 3.0 | 3.0 | 0.00 | 0.00 | 0.00 | 72 | 1015.2 |
| 20260505230447 | 65 | 38 | 0.0 | 3.0 | 0.00 | 0.00 | 0.00 | 71 | 1015.4 |
| 20260505225943 | 66 | 35 | 3.0 | 4.0 | 0.00 | 0.00 | 0.00 | 70 | 1015.3 |
| 20260505225440 | 66 | 349 | 1.0 | 3.0 | 0.00 | 0.00 | 0.00 | 69 | 1015.4 |
| 20260505224936 | 67 | 147 | 1.0 | 5.0 | 0.00 | 0.00 | 0.00 | 69 | 1015.4 |
| 20260505224433 | 67 | 107 | 2.0 | 4.0 | 0.00 | 0.00 | 0.00 | 69 | 1015.3 |
| 20260505223930 | 66 | 136 | 2.0 | 2.0 | 0.00 | 0.00 | 0.00 | 69 | 1015.4 |
| 20260505223427 | 66 | 157 | 2.0 | 2.0 | 0.00 | 0.00 | 0.00 | 68 | 1015.3 |
| 20260505222923 | 65 | 112 | 2.0 | 4.0 | 0.00 | 0.00 | 0.00 | 71 | 1015.3 |
| 20260505222419 | 67 | 120 | 3.0 | 4.0 | 0.00 | 0.00 | 0.00 | 69 | 1015.3 |
| 20260505221915 | 66 | 317 | 2.0 | 4.0 | 0.00 | 0.00 | 0.00 | 70 | 1015.5 |
| 20260505221413 | 64 | 283 | 1.0 | 4.0 | 0.00 | 0.00 | 0.00 | 72 | 1015.5 |
| 20260505220910 | 64 | 93 | 2.0 | 6.0 | 0.00 | 0.00 | 0.00 | 72 | 1015.4 |
| 20260505220407 | 65 | 113 | 5.0 | 5.0 | 0.00 | 0.00 | 0.00 | 71 | 1015.6 |
| 20260505215905 | 65 | 185 | 2.0 | 5.0 | 0.00 | 0.00 | 0.00 | 72 | 1015.9 |
| 20260505215402 | 64 | 156 | 2.0 | 5.0 | 0.00 | 0.00 | 0.00 | 72 | 1015.7 |
| 20260505214900 | 65 | 168 | 4.0 | 8.0 | 0.00 | 0.00 | 0.00 | 71 | 1015.6 |
| 20260505214357 | 64 | 176 | 3.0 | 5.0 | 0.00 | 0.00 | 0.00 | 73 | 1015.8 |
| 20260505213855 | 64 | 149 | 3.0 | 5.0 | 0.00 | 0.00 | 0.00 | 72 | 1015.8 |
| 20260505213352 | 64 | 38 | 0.0 | 5.0 | 0.00 | 0.00 | 0.00 | 72 | 1015.9 |
| 20260505212848 | 65 | 120 | 3.0 | 6.0 | 0.00 | 0.00 | 0.00 | 74 | 1015.9 |
| 20260505212345 | 63 | 120 | 1.0 | 5.0 | 0.00 | 0.00 | 0.00 | 76 | 1016.0 |
| 20260505211841 | 63 | 123 | 3.0 | 3.0 | 0.00 | 0.00 | 0.00 | 75 | 1015.8 |
| 20260505211339 | 64 | 123 | 3.0 | 3.0 | 0.00 | 0.00 | 0.00 | 75 | 1015.8 |
| 20260505210836 | 62 | 177 | 6.0 | 6.0 | 0.00 | 0.00 | 0.00 | 76 | 1015.8 |
| 20260505210333 | 62 | 162 | 2.0 | 6.0 | 0.00 | 0.00 | 0.00 | 78 | 1015.9 |
| 20260505205829 | 63 | 149 | 3.0 | 6.0 | 0.00 | 0.00 | 0.00 | 76 | 1015.8 |
| 20260505205328 | 62 | 153 | 1.0 | 4.0 | 0.00 | 0.00 | 0.00 | 78 | 1015.7 |
| 20260505204824 | 62 | 120 | 3.0 | 3.0 | 0.00 | 0.00 | 0.00 | 76 | 1015.8 |
| 20260505204322 | 62 | 159 | 2.0 | 4.0 | 0.00 | 0.00 | 0.00 | 77 | 1015.7 |
| 20260505203819 | 61 | 115 | 2.0 | 4.0 | 0.00 | 0.00 | 0.00 | 80 | 1015.9 |
| 20260505203316 | 60 | 123 | 3.0 | 4.0 | 0.00 | 0.00 | 0.00 | 80 | 1015.9 |
| 20260505202812 | 59 | 169 | 2.0 | 5.0 | 0.00 | 0.00 | 0.00 | 82 | 1015.6 |
| 20260505202308 | 59 | 133 | 4.0 | 4.0 | 0.00 | 0.00 | 0.00 | 85 | 1015.9 |
| 20260505201805 | 58 | 174 | 6.0 | 6.0 | 0.00 | 0.00 | 0.00 | 84 | 1016.0 |
| 20260505201302 | 58 | 165 | 4.0 | 6.0 | 0.00 | 0.00 | 0.00 | 85 | 1016.0 |
| 20260505200800 | 57 | 144 | 2.0 | 4.0 | 0.00 | 0.00 | 0.00 | 87 | 1015.7 |
| 20260505200257 | 57 | 122 | 4.0 | 6.0 | 0.00 | 0.00 | 0.00 | 88 | 1015.8 |
| 20260505195752 | 57 | 121 | 2.0 | 5.0 | 0.00 | 0.00 | 0.00 | 87 | 1015.9 |
| 20260505195250 | 57 | 192 | 1.0 | 4.0 | 0.00 | 0.00 | 0.00 | 86 | 1015.9 |
| 20260505194747 | 57 | 153 | 4.0 | 4.0 | 0.00 | 0.00 | 0.00 | 88 | 1016.0 |
| 20260505194244 | 57 | 116 | 3.0 | 6.0 | 0.00 | 0.00 | 0.00 | 89 | 1015.9 |
| 20260505193739 | 56 | 142 | 3.0 | 4.0 | 0.00 | 0.00 | 0.00 | 88 | 1015.9 |
| 20260505193237 | 56 | 155 | 1.0 | 5.0 | 0.00 | 0.00 | 0.00 | 89 | 1015.8 |
| 20260505192736 | 57 | 114 | 3.0 | 4.0 | 0.00 | 0.00 | 0.00 | 89 | 1015.8 |
| 20260505192233 | 56 | 128 | 2.0 | 4.0 | 0.00 | 0.00 | 0.00 | 90 | 1015.8 |
| 20260505191731 | 56 | 124 | 2.0 | 4.0 | 0.00 | 0.00 | 0.00 | 89 | 1015.7 |
| 20260505191229 | 56 | 157 | 3.0 | 4.0 | 0.00 | 0.00 | 0.00 | 90 | 1015.6 |
| 20260505190725 | 55 | 124 | 2.0 | 3.0 | 0.00 | 0.00 | 0.00 | 90 | 1015.8 |
| 20260505190225 | 55 | 122 | 2.0 | 3.0 | 0.00 | 0.00 | 0.00 | 91 | 1015.6 |
| 20260505185722 | 55 | 135 | 3.0 | 4.0 | 0.00 | 0.00 | 0.00 | 92 | 1015.7 |
| 20260505185218 | 54 | 120 | 4.0 | 5.0 | 0.00 | 0.00 | 0.00 | 92 | 1015.7 |
| 20260505184714 | 54 | 178 | 2.0 | 5.0 | 0.00 | 0.00 | 0.00 | 92 | 1015.7 |
| 20260505184212 | 55 | 119 | 2.0 | 4.0 | 0.00 | 0.00 | 0.00 | 92 | 1015.6 |
| 20260505183708 | 54 | 142 | 2.0 | 4.0 | 0.00 | 0.00 | 0.00 | 93 | 1015.9 |
| 20260505183206 | 54 | 124 | 2.0 | 4.0 | 0.00 | 0.00 | 0.00 | 94 | 1015.8 |
| 20260505182702 | 54 | 158 | 3.0 | 4.0 | 0.00 | 0.00 | 0.00 | 93 | 1015.9 |
| 20260505182159 | 54 | 120 | 3.0 | 4.0 | 0.00 | 0.00 | 0.00 | 94 | 1015.8 |
| 20260505181655 | 54 | 112 | 2.0 | 3.0 | 0.00 | 0.00 | 0.00 | 94 | 1015.7 |
| 20260505181153 | 53 | 158 | 4.0 | 5.0 | 0.00 | 0.00 | 0.00 | 94 | 1015.6 |
| 20260505180649 | 54 | 153 | 3.0 | 4.0 | 0.00 | 0.00 | 0.00 | 94 | 1015.7 |
| 20260505180147 | 54 | 117 | 5.0 | 5.0 | 0.00 | 0.00 | 0.00 | 94 | 1015.5 |
| 20260505175642 | 53 | 130 | 4.0 | 5.0 | 0.00 | 0.00 | 0.00 | 94 | 1015.5 |
| 20260505175139 | 53 | 170 | 2.0 | 3.0 | 0.00 | 0.00 | 0.00 | 94 | 1015.5 |
| 20260505174636 | 53 | 112 | 4.0 | 4.0 | 0.00 | 0.00 | 0.00 | 95 | 1015.5 |
| 20260505174132 | 53 | 113 | 3.0 | 4.0 | 0.00 | 0.00 | 0.00 | 96 | 1015.3 |
| 20260505173629 | 53 | 149 | 3.0 | 3.0 | 0.00 | 0.00 | 0.00 | 95 | 1015.4 |
| 20260505173125 | 53 | 146 | 3.0 | 4.0 | 0.00 | 0.00 | 0.00 | 96 | 1015.4 |
| 20260505172623 | 53 | 129 | 0.0 | 4.0 | 0.00 | 0.00 | 0.00 | 96 | 1015.4 |
| 20260505172120 | 53 | 164 | 3.0 | 4.0 | 0.00 | 0.00 | 0.00 | 96 | 1015.4 |
| 20260505171614 | 53 | 119 | 3.0 | 4.0 | 0.00 | 0.00 | 0.00 | 97 | 1015.2 |
| 20260505171112 | 52 | 117 | 3.0 | 4.0 | 0.00 | 0.00 | 0.00 | 97 | 1015.3 |
| 20260505170609 | 52 | 117 | 3.0 | 3.0 | 0.00 | 0.00 | 0.00 | 97 | 1015.3 |
| 20260505170105 | 52 | 153 | 4.0 | 4.0 | 0.00 | 0.00 | 0.00 | 97 | 1015.4 |
| 20260505165554 | 52 | 64 | 2.0 | 4.0 | 0.00 | 0.00 | 0.00 | 97 | 1015.2 |
| 20260505165051 | 52 | 97 | 2.0 | 5.0 | 0.00 | 0.00 | 0.00 | 98 | 1015.4 |
| 20260505164547 | 52 | 107 | 2.0 | 4.0 | 0.00 | 0.00 | 0.00 | 98 | 1015.4 |
| 20260505164044 | 52 | 110 | 3.0 | 4.0 | 0.00 | 0.00 | 0.00 | 98 | 1015.2 |
| 20260505163543 | 51 | 118 | 2.0 | 4.0 | 0.00 | 0.00 | 0.00 | 98 | 1015.3 |
| 20260505163039 | 52 | 147 | 1.0 | 3.0 | 0.00 | 0.00 | 0.00 | 98 | 1015.2 |
| 20260505162532 | 51 | 124 | 2.0 | 3.0 | 0.00 | 0.00 | 0.00 | 99 | 1015.3 |
| 20260505162029 | 51 | 159 | 2.0 | 4.0 | 0.00 | 0.00 | 0.00 | 99 | 1015.3 |
| 20260505161526 | 51 | 123 | 4.0 | 4.0 | 0.00 | 0.00 | 0.00 | 99 | 1015.3 |
| 20260505161023 | 51 | 128 | 3.0 | 4.0 | 0.00 | 0.00 | 0.00 | 99 | 1015.1 |
| 20260505160521 | 51 | 154 | 0.0 | 4.0 | 0.00 | 0.00 | 0.00 | 99 | 1015.2 |
| 20260505152957 | 51 | 132 | 2.0 | 4.0 | 0.00 | 0.00 | 0.00 | 99 | 1015.0 |
| 20260505152454 | 51 | 116 | 2.0 | 3.0 | 0.00 | 0.00 | 0.00 | 99 | 1014.7 |
| 20260505151949 | 51 | 104 | 3.0 | 4.0 | 0.00 | 0.00 | 0.00 | 99 | 1014.8 |
| 20260505151445 | 51 | 163 | 2.0 | 3.0 | 0.00 | 0.00 | 0.00 | 99 | 1014.8 |
| 20260505150943 | 51 | 136 | 2.0 | 4.0 | 0.00 | 0.00 | 0.00 | 99 | 1014.7 |
| 20260505150439 | 51 | 125 | 2.0 | 3.0 | 0.00 | 0.00 | 0.00 | 99 | 1014.7 |
| 20260505140404 | 50 | 132 | 3.0 | 3.0 | 0.00 | 0.00 | 0.00 | 99 | 1014.4 |
| 20260505124817 | 50 | 124 | 2.0 | 3.0 | 0.00 | 0.00 | 0.00 | 99 | 1013.4 |
| 20260505124314 | 50 | 110 | 2.0 | 2.0 | 0.00 | 0.00 | 0.00 | 99 | 1013.4 |
| 20260505123810 | 50 | 111 | 0.0 | 1.0 | 0.00 | 0.00 | 0.00 | 99 | 1013.4 |